[[{"header":{"parameterUnit":"m.s-1","parameterCategory":1,"la1":30.2991,"la2":30.254,"lo1":-89.0895,"lo2":-89.0444,"dy":0.0017,"dx":0.0017,"nx":28,"ny":28,"refTime":"2025-09-15T03:00:00:Z","depth":0,"parameterNumber":2,"parameterNumberName":"U-component_of_WINDS"},"data":[0,0,0,0,0,0,0,0,0,0,0,0,0,0,0,0,0,0,0,0,0,0,0,0,0,0,0,0,0,0,0,0,0,0,0,0,0,0,0,0,0,0,0,0,0,0,0,0,0,0,0,0,0,0,0,0,0,0,1.8496,1.8496,0,1.8526,1.8527,1.8527,1.8492,1.8491,1.8489,1.8488,1.852,1.8522,1.8524,0,0,0,0,0,0,0,0,0,0,0,0,0,1.8407,1.8408,1.8496,1.8497,1.8497,1.8526,1.8527,1.8527,1.8492,1.8491,1.8489,1.8488,1.8519,1.8522,1.8524,0,0,0,0,0,0,0,0,0,0,0,0,0,1.8442,1.8409,1.8496,1.8483,1.8482,1.8526,1.8527,1.8527,1.8493,1.8491,1.8489,1.8487,1.8518,1.8521,1.8524,1.8583,0,0,1.8534,1.8535,0,0,0,0,0,0,0,0,1.844,1.8445,1.8485,1.8484,1.8483,1.8503,1.8507,1.8546,1.8493,1.8489,1.8488,1.8486,1.8516,1.8519,1.8529,1.8585,1.8586,1.8534,1.8536,1.8537,1.8538,0,0,0,0,0,0,0,1.8438,1.8444,1.8508,1.8485,1.8484,1.8475,1.8478,1.8514,1.8513,1.8489,1.8486,1.849,1.8515,1.8526,1.853,1.8586,1.8534,1.8537,1.8539,1.854,1.8688,1.869,0,0,0,0,0,0,1.8437,1.8442,1.8507,1.8509,1.8456,1.8478,1.8482,1.8499,1.8513,1.8513,1.8492,1.8489,1.8522,1.8526,1.8531,1.8598,1.8537,1.854,1.8542,1.8686,1.8688,1.8691,0,0,0,0,0,0,1.8435,1.8443,1.8506,1.8475,1.8482,1.8482,1.8502,1.8501,1.8512,1.8515,1.8515,1.8504,1.8521,1.8526,1.8569,1.8598,1.8542,1.8544,1.8683,1.8687,1.8689,1.8734,0,0,0,0,0,0,1.8433,1.8443,1.8465,1.8476,1.8484,1.8545,1.8504,1.8503,1.8517,1.8513,1.8526,1.8526,1.8519,1.8565,1.8573,1.8602,1.8547,1.8681,1.8685,1.8688,1.873,1.8738,1.8745,0,0,0,0,0,1.843,1.8478,1.8467,1.8475,1.8513,1.8547,1.8551,1.8543,1.852,1.8542,1.8543,1.8526,1.8594,1.857,1.8578,1.8608,1.8679,1.8684,1.8688,1.8726,1.8736,1.8745,0,0,0,0,0,0,1.8472,1.8479,1.8467,1.852,1.8533,1.8541,1.8569,1.8554,1.8574,1.857,1.8558,1.8561,1.8607,1.8612,1.8585,1.8664,1.8633,1.8639,1.8659,1.8668,1.8676,1.8673,1.855,0,0,0,0,0,1.8487,1.8514,1.8519,1.8565,1.8572,1.8569,1.8584,1.8576,1.8589,1.8594,1.8599,1.8613,1.8637,1.8653,1.8676,1.8731,1.8732,1.8755,1.8763,1.8769,1.8775,1.8801,1.8811,1.8706,1.8706,1.8706,0,0,1.8519,1.8526,1.8545,1.8574,1.8583,1.861,1.8574,1.8606,1.8625,1.8599,1.8639,1.8644,1.8658,1.8706,1.8727,1.8712,1.8804,1.8775,1.878,1.8782,1.8807,1.8816,1.8825,1.8709,1.8708,1.8708,0,0,1.8591,1.8601,1.8638,1.8648,1.8661,1.8659,1.8668,1.8677,1.8679,1.8719,1.8699,1.8722,1.8765,1.8775,1.8785,1.8858,1.8842,1.8866,1.8906,1.8932,1.894,1.8947,1.897,1.8979,1.8872,1.8872,1.8872,0,1.8629,1.867,1.866,1.8691,1.8704,1.868,1.8717,1.8727,1.8748,1.8757,1.8739,1.879,1.8798,1.8847,1.8864,1.8875,1.8883,1.8864,1.8939,1.8947,1.8953,1.8975,1.8984,1.8875,1.8874,1.8874,1.8874,0,1.8715,1.8743,1.8772,1.8791,1.8807,1.8842,1.8835,1.8852,1.8843,1.8842,1.8881,1.889,1.8912,1.8924,1.8915,1.8971,1.896,1.8941,1.8909,1.8966,1.8986,1.8995,1.8879,1.8878,1.8877,1.8876,0,0,1.8815,1.8826,1.8836,1.8843,1.8856,1.8877,1.891,1.8931,1.8944,1.8959,1.8985,1.9021,1.9002,1.9014,1.9007,1.903,1.9083,1.9007,1.9007,1.9019,1.9141,1.9154,1.9164,1.9073,1.9074,1.9076,1.9139,0,1.8885,1.8941,1.8931,1.8985,1.9009,1.8986,1.9014,1.9024,1.9024,1.9044,1.9044,1.9068,1.9044,1.905,1.9072,1.9072,1.9107,1.9068,1.9095,1.9096,1.909,1.9175,1.9189,1.9249,1.9147,1.9149,1.915,0,1.8974,1.899,1.9046,1.9051,1.9061,1.9087,1.9104,1.9124,1.9134,1.9132,1.9144,1.9132,1.9163,1.9131,1.9172,1.9146,1.9156,1.9158,1.916,1.9161,1.9125,1.9176,1.9268,1.9276,1.9163,1.9162,1.9161,0,1.9038,1.9074,1.9111,1.9118,1.9126,1.9144,1.9148,1.9156,1.9169,1.9184,1.9191,1.9211,1.9221,1.9235,1.9227,1.9206,1.9269,1.9238,1.9267,1.9267,1.928,1.9279,1.9373,1.9291,1.9291,1.9291,1.9291,0,1.9116,1.915,1.9139,1.9162,1.9199,1.9187,1.9224,1.9226,1.9233,1.9254,1.9237,1.9258,1.9247,1.9267,1.9261,1.9295,1.93,1.9298,1.9296,1.9299,1.9298,1.9304,1.9299,1.9293,1.9293,1.9292,1.9292,0,1.9193,1.9188,1.9226,1.923,1.9231,1.9258,1.9261,1.9281,1.9279,1.9307,1.9312,1.9309,1.9331,1.9324,1.9349,1.9345,1.9387,1.938,1.9383,1.938,1.9409,1.9406,1.9508,1.952,1.9432,1.9433,1.9434,0,1.9243,1.9268,1.9274,1.9286,1.9291,1.9313,1.9325,1.9314,1.9327,1.9339,1.9357,1.9377,1.9393,1.9429,1.9428,1.9446,1.9439,1.9473,1.9441,1.9442,1.9436,1.9434,1.9435,1.9479,1.948,1.9481,1.9482,0,1.933,1.9324,1.9342,1.9358,1.9372,1.9385,1.9395,1.9407,1.9396,1.9412,1.9433,1.9445,1.9469,1.9488,1.9504,1.9508,1.9492,1.9492,1.9499,1.9501,1.9501,1.9499,1.9398,1.9489,1.9488,1.9488,1.9488,1.9487,1.9393,1.9413,1.9419,1.9438,1.9445,1.9454,1.9473,1.9472,1.9489,1.9507,1.95,1.9524,1.9531,1.955,1.9556,1.9575,1.9561,1.9573,1.9575,1.9577,1.958,1.9499,1.9578,1.9578,1.9577,1.9577,1.9577,0,1.9476,1.9478,1.9496,1.9511,1.9525,1.9509,1.9519,1.9533,1.9554,1.9562,1.9576,1.96,1.9618,1.9618,1.9635,1.9649,1.9643,1.9654,1.9652,1.9652,1.9592,1.9583,1.9659,1.9659,1.9659,1.9659,1.9659,1.9659,1.9521,1.9554,1.9549,1.9584,1.9586,1.9609,1.9616,1.9624,1.963,1.9656,1.9671,1.967,1.9675,1.9691,1.9706,1.9706,1.9712,1.9726,1.9722,1.9665,1.9657,1.9649,1.964,1.9728,1.9728,1.9781,1.9781,1.9782]},{"header":{"parameterUnit":"m.s-1","parameterCategory":1,"la1":30.2991,"la2":30.254,"lo1":-89.0895,"lo2":-89.0444,"dy":0.0017,"dx":0.0017,"nx":28,"ny":28,"refTime":"2025-09-15T03:00:00:Z","depth":0,"parameterNumber":3,"parameterNumberName":"V-component_of_WINDS"},"data":[0,0,0,0,0,0,0,0,0,0,0,0,0,0,0,0,0,0,0,0,0,0,0,0,0,0,0,0,0,0,0,0,0,0,0,0,0,0,0,0,0,0,0,0,0,0,0,0,0,0,0,0,0,0,0,0,0,0,2.3295,2.3294,0,2.3235,2.3234,2.3233,2.3168,2.3167,2.3166,2.3165,2.3101,2.31,2.31,0,0,0,0,0,0,0,0,0,0,0,0,0,2.335,2.335,2.3295,2.3294,2.3293,2.3235,2.3234,2.3233,2.3168,2.3167,2.3166,2.3165,2.3101,2.31,2.3099,0,0,0,0,0,0,0,0,0,0,0,0,0,2.3312,2.3349,2.3295,2.3254,2.325,2.3235,2.3234,2.3233,2.3168,2.3167,2.3166,2.3164,2.3102,2.3101,2.3099,2.3119,0,0,2.3095,2.3095,0,0,0,0,0,0,0,0,2.3314,2.331,2.3261,2.3257,2.3252,2.3208,2.323,2.3195,2.3169,2.3199,2.3165,2.3164,2.3138,2.3133,2.3125,2.3116,2.3114,2.3095,2.3095,2.3094,2.3094,0,0,0,0,0,0,0,2.3317,2.3312,2.3271,2.326,2.3255,2.3238,2.3231,2.3223,2.3177,2.3197,2.3192,2.3186,2.3135,2.3126,2.3123,2.3113,2.3095,2.3094,2.3093,2.3093,2.3114,2.3116,0,0,0,0,0,0,2.3326,2.3315,2.3273,2.3269,2.328,2.3238,2.323,2.3223,2.3177,2.3168,2.3187,2.3183,2.3129,2.3124,2.312,2.3139,2.3094,2.3093,2.3092,2.3113,2.3115,2.3116,0,0,0,0,0,0,2.3328,2.3323,2.3275,2.3291,2.3283,2.3238,2.3231,2.3223,2.3214,2.3169,2.3161,2.3187,2.3128,2.3122,2.312,2.3136,2.3092,2.3091,2.3111,2.3114,2.3115,2.3177,0,0,0,0,0,0,2.3329,2.3324,2.3332,2.3291,2.3283,2.3277,2.3232,2.3223,2.3212,2.3207,2.3167,2.3159,2.3126,2.3122,2.3118,2.3133,2.309,2.311,2.3112,2.3115,2.3173,2.3181,2.3187,0,0,0,0,0,2.3332,2.3352,2.3333,2.3328,2.3292,2.3278,2.3273,2.3236,2.3214,2.3221,2.3192,2.316,2.3135,2.3122,2.3118,2.3132,2.3109,2.3112,2.3115,2.317,2.3179,2.3187,0,0,0,0,0,0,2.3395,2.3346,2.3324,2.3332,2.331,2.3267,2.3275,2.3247,2.323,2.3225,2.3178,2.317,2.3172,2.3152,2.3139,2.3148,2.3117,2.3119,2.3161,2.3169,2.3176,2.318,2.3089,0,0,0,0,0,2.341,2.3404,2.3361,2.3371,2.3362,2.332,2.3313,2.3286,2.3261,2.3251,2.3222,2.3198,2.3183,2.3175,2.316,2.317,2.3159,2.3178,2.3185,2.3191,2.3193,2.3194,2.3201,2.3126,2.3126,2.3126,0,0,2.344,2.3413,2.3412,2.3383,2.3363,2.3356,2.3313,2.3308,2.3302,2.325,2.3245,2.3223,2.3193,2.3196,2.3196,2.3179,2.3211,2.3195,2.32,2.3198,2.3198,2.3205,2.3211,2.3128,2.3128,2.3127,0,0,2.3492,2.3472,2.3477,2.3458,2.3428,2.34,2.3402,2.3363,2.3346,2.3341,2.3301,2.3293,2.3271,2.325,2.3237,2.328,2.3249,2.3276,2.3312,2.3314,2.332,2.3325,2.3338,2.3343,2.3279,2.3279,2.3279,0,2.3534,2.3523,2.3484,2.3481,2.3469,2.3422,2.3426,2.3409,2.3376,2.3367,2.335,2.332,2.3296,2.3293,2.3303,2.3295,2.3293,2.328,2.3322,2.3327,2.3331,2.3343,2.3348,2.3282,2.3282,2.3281,2.3281,0,2.3574,2.3567,2.3575,2.3544,2.3533,2.3534,2.3494,2.3487,2.3461,2.3435,2.3429,2.3399,2.3376,2.3374,2.3348,2.3366,2.3356,2.3331,2.3299,2.3342,2.3352,2.3357,2.3287,2.3286,2.3285,2.3284,0,0,2.3663,2.3611,2.3614,2.3599,2.3562,2.3555,2.3553,2.3531,2.3525,2.3504,2.3499,2.3481,2.3457,2.3442,2.3413,2.3415,2.3448,2.3389,2.3388,2.3399,2.3463,2.3481,2.3487,2.3428,2.3429,2.3429,2.3464,0,2.3707,2.3702,2.3666,2.367,2.3662,2.3617,2.3615,2.3591,2.3567,2.3555,2.3527,2.3514,2.3484,2.3475,2.3475,2.3444,2.346,2.3441,2.3421,2.3421,2.3429,2.3492,2.3512,2.3546,2.3468,2.3469,2.347,0,2.3757,2.3739,2.3743,2.3704,2.3699,2.3699,2.3675,2.3665,2.3636,2.3618,2.3601,2.3568,2.3562,2.3533,2.3521,2.351,2.3499,2.3483,2.3483,2.3478,2.3447,2.3487,2.3557,2.3561,2.3476,2.3475,2.3475,0,2.382,2.3796,2.3794,2.3783,2.3739,2.3739,2.372,2.369,2.3679,2.3657,2.3649,2.3628,2.3615,2.3598,2.356,2.3543,2.3552,2.352,2.3534,2.3535,2.3537,2.3537,2.3604,2.3534,2.3534,2.3534,2.3534,0,2.3871,2.3874,2.3821,2.3821,2.3822,2.3781,2.3783,2.376,2.3734,2.3726,2.3686,2.3679,2.363,2.3617,2.3588,2.3581,2.3576,2.356,2.3551,2.3562,2.3564,2.3554,2.3549,2.3535,2.3535,2.3535,2.3534,0,2.394,2.3905,2.39,2.3859,2.3849,2.3852,2.3815,2.3811,2.3784,2.3775,2.377,2.3727,2.3709,2.367,2.3642,2.3621,2.3622,2.3608,2.3632,2.3626,2.3642,2.364,2.3702,2.3707,2.3636,2.3637,2.3638,0,2.3975,2.3976,2.3935,2.3928,2.3911,2.3899,2.3887,2.3846,2.3835,2.3802,2.3802,2.3781,2.3763,2.3736,2.3701,2.3678,2.3663,2.3686,2.3659,2.3669,2.366,2.366,2.3659,2.3691,2.3693,2.3693,2.3694,0,2.4038,2.4021,2.4006,2.3985,2.3972,2.3954,2.3932,2.3928,2.3881,2.3871,2.3853,2.3839,2.381,2.3789,2.3761,2.3739,2.3708,2.3703,2.3704,2.3715,2.3728,2.3719,2.3646,2.3701,2.3701,2.37,2.37,2.3699,2.409,2.4088,2.4059,2.4043,2.4023,2.4004,2.3998,2.397,2.3955,2.3929,2.3905,2.3889,2.3858,2.3817,2.3798,2.3783,2.3768,2.3771,2.3771,2.3772,2.3776,2.3732,2.3778,2.3778,2.3777,2.3777,2.3777,0,2.4149,2.4128,2.4115,2.4087,2.4074,2.4048,2.4022,2.4013,2.3999,2.3974,2.3956,2.3935,2.3914,2.3877,2.3852,2.3847,2.3832,2.3842,2.3841,2.3836,2.3792,2.3792,2.3855,2.3855,2.3855,2.3855,2.3855,2.3855,2.4179,2.4175,2.4154,2.4138,2.4117,2.4102,2.4089,2.407,2.405,2.4028,2.4011,2.3987,2.3956,2.3929,2.3908,2.3897,2.3889,2.3903,2.3888,2.3847,2.384,2.3833,2.3832,2.3902,2.3902,2.3933,2.3933,2.3933]}]]